1509278400.03,8202,10.69,70648.8,-7.81,-8.51,-8.37,0,*66
1509278401.23,8203,10.69,70652.8,-7.83,-8.41,-8.37,0,*64
1509278402.45,8204,10.69,70656.8,-7.81,-8.45,-8.33,0,*61
1509278403.66,8205,10.69,70652.0,-7.81,-8.37,-8.33,0,*65
1509278404.88,8206,10.69,70650.3,-7.81,-8.37,-8.33,0,*66
1509278406.09,8207,10.69,70650.3,-7.81,-8.25,-8.33,0,*64
1509278407.31,8208,10.69,70652.5,-7.81,-8.37,-8.33,0,*68
1509278408.53,8209,10.69,70658.0,-7.81,-8.33,-8.37,0,*69
1509278409.74,8210,10.69,70658.0,-7.81,-8.33,-8.25,0,*62
1509278410.93,8211,10.69,70656.8,-7.79,-8.33,-8.21,0,*60
1509278412.12,8212,10.69,70656.0,-7.79,-8.33,-8.25,0,*67
1509278413.31,8213,10.69,70656.0,-7.79,-8.25,-8.25,0,*61
1509278414.49,8214,10.69,70652.8,-7.79,-8.33,-8.25,0,*61
1509278415.69,8215,10.69,70660.0,-7.79,-8.25,-8.21,0,*63
1509278416.88,8216,10.69,70656.5,-7.79,-8.25,-8.21,0,*60
1509278418.07,8217,10.69,70652.8,-7.79,-8.33,-8.21,0,*66
1509278419.26,8218,10.69,70658.0,-7.79,-8.33,-8.25,0,*6D
1509278420.44,8219,10.69,70658.8,-7.79,-8.33,-8.25,0,*6C
1509278421.66,8220,10.69,70654.0,-7.77,-8.21,-8.21,0,*6F
1509278422.87,8221,10.69,70656.0,-7.77,-8.29,-8.17,0,*63
1509278424.06,8222,10.69,70660.3,-7.79,-8.37,-8.25,0,*60
1509278425.28,8223,10.69,70658.3,-7.77,-8.21,-8.29,0,*64
1509278426.49,8224,10.69,70656.0,-7.77,-8.29,-8.29,0,*6B
1509278427.7,8225,10.69,70654.3,-7.77,-8.29,-8.29,0,*6A
1509278428.88,8226,10.69,70654.5,-7.79,-8.33,-8.33,0,*67
1509278430.07,8227,10.69,70652.5,-7.79,-8.37,-8.33,0,*62
1509278431.27,8228,10.69,70652.0,-7.79,-8.45,-8.45,0,*69
1509278432.48,8229,10.69,70654.5,-7.77,-8.41,-8.41,0,*66
1509278433.73,8230,10.69,70666.3,-7.79,-8.51,-8.51,0,*60
1509278434.97,8231,10.69,70674.5,-7.79,-8.51,-8.51,0,*61
1509278436.19,8232,10.69,70680.5,-7.77,-8.45,-8.45,0,*6C
1509278437.41,8233,10.69,70678.3,-7.77,-8.45,-8.41,0,*69
1509278438.63,8234,10.69,70682.3,-7.77,-8.55,-8.45,0,*6B
1509278439.84,8235,10.69,70680.8,-7.77,-8.55,-8.55,0,*6B
1509278441.03,8236,10.69,70676.5,-7.79,-8.59,-8.59,0,*66
1509278442.24,8237,10.69,70674.0,-7.79,-8.59,-8.51,0,*6F
1509278443.43,8238,10.69,70670.0,-7.79,-8.59,-8.59,0,*68
1509278444.65,8239,10.69,70664.0,-7.79,-8.59,-8.51,0,*61
1509278445.86,8240,10.69,70670.3,-7.77,-8.59,-8.45,0,*64
1509278447.08,8241,10.69,70670.5,-7.77,-8.45,-8.41,0,*6C
1509278448.3,8242,10.69,70672.5,-7.77,-8.55,-8.41,0,*6E
1509278449.51,8243,10.69,70668.3,-7.77,-8.45,-8.59,0,*67
1509278450.7,8244,10.69,70670.0,-7.79,-8.59,-8.59,0,*63
1509278451.89,8245,10.69,70644.5,-7.79,-8.63,-8.63,0,*62
1509278453.08,8246,10.69,70648.3,-7.79,-8.63,-8.59,0,*68
1509278454.27,8247,10.69,70652.8,-7.79,-8.63,-8.63,0,*60
1509278455.46,8248,10.69,70648.8,-7.79,-8.63,-8.63,0,*6F
1509278456.65,8249,10.69,70646.8,-7.79,-8.59,-8.59,0,*6E
1509278457.87,8250,10.69,70648.5,-7.79,-8.63,-8.51,0,*67
1509278459.06,8251,10.69,70602.3,-7.79,-8.59,-8.45,0,*6A
1509278460.28,8252,10.69,70618.8,-7.79,-8.59,-8.51,0,*6C
1509278461.49,8253,10.69,70622.5,-7.79,-8.59,-8.51,0,*6D
1509278462.71,8254,10.69,70614.0,-7.79,-8.59,-8.51,0,*6A
1509278463.93,8255,10.69,70638.5,-7.79,-8.59,-8.51,0,*6B
1509278465.14,8256,10.69,70646.5,-7.81,-8.59,-8.59,0,*67
1509278466.33,8257,10.69,70630.3,-7.79,-8.59,-8.59,0,*61
1509278467.54,8258,10.69,70592.8,-7.79,-8.59,-8.51,0,*66
1509278468.73,8259,10.69,70584.3,-7.79,-8.63,-8.59,0,*66
1509278469.94,8260,10.69,70606.8,-7.77,-8.59,-8.59,0,*6B
1509278471.13,8261,10.69,70632.5,-7.79,-8.63,-8.59,0,*6D
1509278472.33,8262,10.69,70620.3,-7.79,-8.63,-8.63,0,*67
1509278473.52,8263,10.69,70632.8,-7.79,-8.63,-8.63,0,*66
1509278474.71,8264,10.69,70616.5,-7.79,-8.63,-8.59,0,*68
1509278475.92,8265,10.69,70624.0,-7.81,-8.63,-8.59,0,*6E
1509278477.11,8266,10.69,70656.3,-7.79,-8.59,-8.63,0,*6A
1509278478.33,8267,10.69,70688.3,-7.81,-8.63,-8.63,0,*65
1509278479.55,8268,10.69,70638.8,-7.81,-8.63,-8.63,0,*6A
1509278480.76,8269,10.69,70628.5,-7.81,-8.75,-8.67,0,*68
1509278481.97,8270,10.69,70628.8,-7.81,-8.75,-8.67,0,*60
1509278483.18,8271,10.69,70632.0,-7.81,-8.75,-8.67,0,*61
1509278484.39,8272,10.69,70630.5,-7.81,-8.67,-8.67,0,*61
1509278485.6,8273,10.69,70632.5,-7.83,-8.71,-8.71,0,*62
1509278486.81,8274,10.69,70628.8,-7.81,-8.67,-8.67,0,*67
1509278488.02,8275,10.69,70628.5,-7.81,-8.67,-8.67,0,*66
1509278489.23,8276,10.69,70624.3,-7.81,-8.67,-8.67,0,*65
1509278490.43,8277,10.69,70626.5,-7.83,-8.71,-8.71,0,*66
1509278491.65,8278,10.69,70624.3,-7.83,-8.81,-8.71,0,*66
1509278492.85,8279,10.69,70616.8,-7.83,-8.71,-8.71,0,*68
1509278494.06,8280,10.69,70622.3,-7.81,-8.67,-8.67,0,*6C
1509278495.26,8281,10.69,70620.3,-7.83,-8.71,-8.71,0,*6F
1509278496.47,8282,10.69,70614.5,-7.83,-8.71,-8.71,0,*6C
1509278497.67,8283,10.69,70622.3,-7.83,-8.71,-8.71,0,*6D
1509278498.87,8284,10.69,70618.3,-7.83,-8.71,-8.71,0,*6A
1509278500.07,8285,10.69,70622.3,-7.83,-8.71,-8.71,0,*6B
1509278501.27,8286,10.69,70616.3,-7.83,-8.71,-8.71,0,*68
1509278502.47,8287,10.69,70626.5,-7.83,-8.71,-8.71,0,*69
1509278503.68,8288,10.69,70636.0,-7.83,-8.71,-8.71,0,*66
1509278504.88,8289,10.69,70630.0,-7.83,-8.71,-8.71,0,*67
1509278506.08,8290,10.69,70610.8,-7.83,-8.71,-8.67,0,*68
1509278507.27,8291,10.69,70624.8,-7.83,-8.71,-8.67,0,*69
1509278508.47,8292,10.69,70620.0,-7.83,-8.71,-8.67,0,*6A
1509278509.67,8293,10.69,70612.3,-7.83,-8.71,-8.67,0,*6B
1509278510.87,8294,10.69,70636.3,-7.83,-8.71,-8.67,0,*6C
1509278512.06,8295,10.69,70636.5,-7.83,-8.71,-8.67,0,*6D
1509278513.26,8296,10.69,70620.0,-7.83,-8.71,-8.67,0,*6E
1509278514.46,8297,10.69,70612.5,-7.83,-8.71,-8.67,0,*6F
1509278515.68,8298,10.69,70628.8,-7.85,-8.71,-8.63,0,*62
1509278516.89,8299,10.69,70636.0,-7.85,-8.67,-8.67,0,*60
1509278518.1,8300,10.69,70612.8,-7.85,-8.67,-8.67,0,*61
1509278519.28,8301,10.69,70610.0,-7.89,-8.67,-8.67,0,*6C
1509278520.49,8302,10.69,70590.8,-7.85,-8.67,-8.67,0,*63
1509278521.71,8303,10.69,70588.8,-7.85,-8.71,-8.67,0,*65
1509278522.93,8304,10.69,70590.0,-7.85,-8.71,-8.67,0,*62
1509278524.12,8305,10.69,70596.8,-7.89,-8.71,-8.67,0,*6F
1509278525.3,8306,10.69,70600.8,-7.89,-8.75,-8.71,0,*6F
1509278526.52,8307,10.69,70600.8,-7.85,-8.71,-8.67,0,*61
1509278527.71,8308,10.69,70608.3,-7.89,-8.75,-8.71,0,*61
1509278528.9,8309,10.69,70612.0,-7.89,-8.75,-8.71,0,*60
1509278530.11,8310,10.69,70614.8,-7.85,-8.71,-8.67,0,*67
1509278531.33,8311,10.69,70614.0,-7.85,-8.71,-8.67,0,*66
1509278532.55,8312,10.69,70614.8,-7.85,-8.71,-8.67,0,*65
1509278533.77,8313,10.69,70614.3,-7.85,-8.71,-8.63,0,*60
1509278534.96,8314,10.69,70620.8,-7.89,-8.75,-8.71,0,*6C
1509278536.15,8315,10.69,70622.5,-7.89,-8.75,-8.71,0,*6D
1509278537.36,8316,10.69,70626.3,-7.85,-8.71,-8.67,0,*61
1509278538.55,8317,10.69,70632.3,-7.89,-8.71,-8.67,0,*6C
1509278539.75,8318,10.69,70636.5,-7.89,-8.71,-8.71,0,*64
1509278540.96,8319,10.69,70628.8,-7.85,-8.67,-8.67,0,*69
1509278542.17,8320,10.69,70628.5,-7.85,-8.67,-8.67,0,*63
1509278543.36,8321,10.69,70628.5,-7.89,-8.71,-8.71,0,*6E
1509278544.56,8322,10.69,70624.0,-7.89,-8.71,-8.71,0,*6D
1509278545.74,8323,10.69,70624.0,-7.89,-8.71,-8.67,0,*6B
1509278546.96,8324,10.69,70626.5,-7.85,-8.67,-8.71,0,*60
1509278548.15,8325,10.69,70640.5,-7.89,-8.71,-8.71,0,*6A
1509278549.36,8326,10.69,70646.5,-7.85,-8.67,-8.67,0,*65
1509278550.57,8327,10.69,70650.0,-7.85,-8.67,-8.67,0,*64
1509278551.76,8328,10.69,70640.3,-7.89,-8.71,-8.67,0,*60
1509278552.96,8329,10.69,70628.8,-7.89,-8.71,-8.71,0,*66
1509278554.14,8330,10.69,70618.0,-7.89,-8.75,-8.71,0,*6A
1509278555.33,8331,10.69,70598.3,-7.89,-8.75,-8.75,0,*6F
1509278556.53,8332,10.69,70592.5,-7.89,-8.75,-8.85,0,*63
1509278557.71,8333,10.69,70598.8,-7.89,-8.75,-8.75,0,*6D
1509278558.9,8334,10.69,70578.5,-7.89,-8.75,-8.75,0,*6A
1509278560.12,8335,10.69,70568.8,-7.91,-8.75,-8.71,0,*66
1509278561.33,8336,10.69,70560.0,-7.91,-8.75,-8.75,0,*61
1509278562.55,8337,10.69,70546.0,-7.91,-8.85,-8.75,0,*6F
1509278563.78,8338,10.69,70542.8,-7.91,-8.85,-8.85,0,*6F
1509278565.0,8339,10.69,70542.8,-7.91,-8.97,-8.85,0,*6D
1509278566.22,8340,10.69,70546.5,-7.91,-8.97,-8.89,0,*6F
1509278567.45,8341,10.69,70566.0,-7.91,-8.85,-8.85,0,*61
1509278568.68,8342,10.69,70592.0,-7.91,-8.85,-8.85,0,*62
1509278569.9,8343,10.69,70602.8,-7.91,-8.85,-8.75,0,*6C
1509278571.12,8344,10.69,70612.8,-7.91,-8.85,-8.75,0,*6B
1509278572.34,8345,10.69,70626.5,-7.93,-8.89,-8.81,0,*6F
1509278573.55,8346,10.69,70634.5,-7.91,-8.75,-8.75,0,*66
1509278574.76,8347,10.69,70642.8,-7.91,-8.75,-8.75,0,*67
1509278575.98,8348,10.69,70646.5,-7.91,-8.75,-8.75,0,*68
1509278577.17,8349,10.69,70652.3,-7.93,-8.71,-8.75,0,*6F
1509278578.36,8350,10.69,70648.8,-7.93,-8.75,-8.89,0,*60
1509278579.59,8351,10.69,70654.5,-7.93,-8.81,-8.81,0,*62
1509278580.81,8352,10.69,70646.8,-7.91,-8.85,-8.75,0,*6C
1509278582.02,8353,10.69,70666.0,-7.91,-8.75,-8.75,0,*62
1509278583.21,8354,10.69,70668.0,-7.93,-8.75,-8.85,0,*68
1509278584.4,8355,10.69,70666.0,-7.93,-8.75,-8.75,0,*66
1509278585.62,8356,10.69,70660.5,-7.91,-8.85,-8.75,0,*68
1509278586.83,8357,10.69,70660.5,-7.93,-8.89,-8.81,0,*6C
1509278588.06,8358,10.69,70660.5,-7.91,-8.85,-8.85,0,*69
1509278589.26,8359,10.69,70672.3,-7.93,-8.89,-8.89,0,*6A
1509278590.48,8360,10.69,70668.8,-7.91,-8.85,-8.75,0,*6D
1509278591.69,8361,10.69,70664.3,-7.91,-8.75,-8.75,0,*63
1509278592.92,8362,10.69,70662.8,-7.93,-8.81,-8.81,0,*62
1509278594.13,8363,10.69,70662.3,-7.93,-8.81,-8.75,0,*68
1509278595.34,8364,10.69,70660.5,-7.93,-8.81,-8.75,0,*6F
1509278596.54,8365,10.69,70660.0,-7.93,-8.81,-8.75,0,*6E
1509278597.75,8366,10.69,70662.5,-7.93,-8.81,-8.75,0,*6D
1509278598.96,8367,10.69,70662.8,-7.93,-8.81,-8.75,0,*6C
1509278600.16,8368,10.69,70652.3,-7.93,-8.81,-8.75,0,*63
1509278601.37,8369,10.69,70646.8,-7.93,-8.81,-8.75,0,*62
1509278602.57,8370,10.69,70654.0,-7.93,-8.81,-8.75,0,*6A
1509278603.78,8371,10.69,70642.0,-7.93,-8.81,-8.75,0,*6B
1509278604.99,8372,10.69,70638.5,-7.93,-8.81,-8.75,0,*68
1509278606.18,8373,10.69,70640.5,-7.93,-8.93,-8.89,0,*69
1509278607.41,8374,10.69,70634.0,-7.95,-8.93,-8.89,0,*68
1509278608.63,8375,10.69,70600.8,-7.95,-8.93,-8.93,0,*62
1509278609.83,8376,10.69,70586.5,-7.93,-8.93,-8.89,0,*6C
1509278611.02,8377,10.69,70582.3,-7.93,-8.93,-8.89,0,*6D
1509278612.25,8378,10.69,70584.0,-7.95,-8.89,-8.89,0,*6F
1509278613.44,8379,10.69,70582.3,-7.97,-8.97,-8.89,0,*63
1509278614.67,8380,10.69,70582.3,-7.95,-8.93,-8.89,0,*63
1509278615.89,8381,10.69,70606.3,-7.95,-8.93,-8.93,0,*69
1509278617.11,8382,10.69,70624.0,-7.95,-8.93,-8.89,0,*61
1509278618.36,8383,10.69,70634.3,-7.95,-8.89,-8.81,0,*63
1509278619.6,8384,10.69,70640.5,-7.95,-8.93,-8.81,0,*6F
1509278620.8,8385,10.69,70640.5,-7.97,-8.85,-8.85,0,*6F
1509278622.05,8386,10.69,70654.3,-7.95,-8.81,-8.81,0,*6E
1509278623.27,8387,10.69,70660.5,-7.97,-8.81,-8.85,0,*69
1509278624.53,8388,10.69,70670.5,-7.95,-8.81,-8.81,0,*60
1509278625.76,8389,10.69,70672.3,-7.95,-8.81,-8.75,0,*6A
1509278627.0,8390,10.69,70674.5,-7.95,-8.81,-8.75,0,*62
1509278628.21,8391,10.69,70664.3,-7.97,-8.85,-8.81,0,*6E
1509278629.45,8392,10.69,70668.8,-7.95,-8.81,-8.75,0,*60
1509278630.68,8393,10.69,70662.3,-7.95,-8.81,-8.75,0,*61
1509278631.89,8394,10.69,70662.0,-7.95,-8.75,-8.75,0,*6D
1509278633.1,8395,10.69,70660.0,-7.97,-8.81,-8.75,0,*65
1509278634.32,8396,10.69,70656.0,-7.95,-8.71,-8.75,0,*6B
1509278635.51,8397,10.69,70656.0,-7.97,-8.75,-8.75,0,*6C
1509278636.72,8398,10.69,70652.0,-7.95,-8.75,-8.71,0,*65
1509278637.95,8399,10.69,70650.8,-7.97,-8.81,-8.81,0,*62
1509278639.16,8400,10.69,70650.0,-7.95,-8.75,-8.71,0,*63
1509278640.37,8401,10.69,70638.0,-7.97,-8.81,-8.75,0,*6F
1509278641.59,8402,10.69,70636.3,-7.95,-8.71,-8.71,0,*65
1509278642.78,8403,10.69,70644.0,-7.97,-8.75,-8.75,0,*66
1509278643.99,8404,10.69,70646.3,-7.95,-8.75,-8.71,0,*67
1509278645.21,8405,10.69,70650.3,-7.95,-8.71,-8.71,0,*62
1509278646.42,8406,10.69,70646.8,-7.95,-8.75,-8.71,0,*65
1509278647.63,8407,10.69,70644.3,-7.95,-8.75,-8.75,0,*60
1509278648.84,8408,10.69,70644.5,-7.95,-8.75,-8.75,0,*6F
1509278650.06,8409,10.69,70646.0,-7.95,-8.71,-8.75,0,*6A
1509278651.27,8410,10.69,70642.5,-7.95,-8.75,-8.71,0,*62
1509278652.48,8411,10.69,70646.8,-7.95,-8.75,-8.75,0,*67
1509278653.69,8412,10.69,70646.0,-7.95,-8.75,-8.75,0,*64
1509278654.92,8413,10.69,70634.0,-7.97,-8.81,-8.81,0,*67
1509278656.13,8414,10.69,70624.8,-7.95,-8.75,-8.71,0,*66
1509278657.34,8415,10.69,70618.3,-7.97,-8.81,-8.75,0,*6A
1509278658.53,8416,10.69,70614.8,-7.97,-8.75,-8.75,0,*62
1509278659.75,8417,10.69,70618.8,-7.95,-8.71,-8.63,0,*62
1509278660.97,8418,10.69,70636.8,-7.95,-8.71,-8.71,0,*6E
1509278662.18,8419,10.69,70646.8,-7.95,-8.71,-8.63,0,*6C
1509278663.37,8420,10.69,70644.8,-7.97,-8.75,-8.67,0,*64
1509278664.58,8421,10.69,70638.3,-7.95,-8.63,-8.63,0,*64
1509278665.79,8422,10.69,70636.8,-7.95,-8.63,-8.59,0,*6E
1509278667.0,8423,10.69,70638.8,-7.95,-8.63,-8.63,0,*66
1509278668.22,8424,10.69,70644.5,-7.95,-8.63,-8.59,0,*68
1509278669.43,8425,10.69,70638.3,-7.95,-8.71,-8.71,0,*60
1509278670.65,8426,10.69,70640.8,-7.95,-8.71,-8.71,0,*63
1509278671.86,8427,10.69,70650.5,-7.95,-8.75,-8.71,0,*66
1509278673.07,8428,10.69,70646.3,-7.95,-8.75,-8.71,0,*69
1509278674.29,8429,10.69,70638.3,-7.95,-8.71,-8.75,0,*68
1509278675.5,8430,10.69,70632.5,-7.95,-8.75,-8.75,0,*64
1509278676.71,8431,10.69,70628.5,-7.95,-8.75,-8.75,0,*65
1509278677.9,8432,10.69,70624.8,-7.97,-8.75,-8.75,0,*64
1509278679.12,8433,10.69,70616.0,-7.95,-8.71,-8.63,0,*64
1509278680.33,8434,10.69,70606.0,-7.95,-8.75,-8.71,0,*64
1509278681.56,8435,10.69,70584.3,-7.97,-8.81,-8.81,0,*63
1509278682.77,8436,10.69,70588.8,-7.95,-8.75,-8.75,0,*62
1509278683.98,8437,10.69,70608.3,-7.95,-8.75,-8.75,0,*63
1509278685.22,8438,10.69,70608.8,-7.95,-8.75,-8.81,0,*67
1509278686.45,8439,10.69,70602.5,-7.95,-8.75,-8.81,0,*66
1509278687.69,8440,10.69,70580.5,-7.95,-8.89,-8.81,0,*6B
1509278688.95,8441,10.69,70576.8,-7.95,-8.81,-8.81,0,*62
1509278690.21,8442,10.69,70572.3,-7.95,-8.81,-8.81,0,*61
1509278691.44,8443,10.69,70568.8,-7.97,-8.81,-8.81,0,*62
1509278692.65,8444,10.69,70578.3,-7.95,-8.75,-8.75,0,*67
1509278693.86,8445,10.69,70586.5,-7.97,-8.81,-8.75,0,*6F
1509278695.07,8446,10.69,70592.0,-7.97,-8.81,-8.75,0,*6C
1509278696.28,8447,10.69,70588.8,-7.95,-8.75,-8.71,0,*60
1509278697.49,8448,10.69,70602.8,-7.95,-8.75,-8.75,0,*6B
1509278698.7,8449,10.69,70610.3,-7.95,-8.75,-8.71,0,*6E
1509278699.91,8450,10.69,70622.0,-7.95,-8.75,-8.75,0,*62
1509278701.12,8451,10.69,70624.5,-7.95,-8.75,-8.75,0,*63
1509278702.36,8452,10.69,70626.8,-7.97,-8.81,-8.81,0,*62
1509278703.59,8453,10.69,70614.8,-7.97,-8.81,-8.81,0,*63
1509278704.83,8454,10.69,70614.5,-7.97,-8.81,-8.81,0,*64
1509278706.06,8455,10.69,70606.8,-7.97,-8.81,-8.81,0,*65
1509278707.29,8456,10.69,70604.0,-7.95,-8.75,-8.81,0,*6F
1509278708.51,8457,10.69,70612.3,-7.97,-8.81,-8.85,0,*63
1509278709.72,8458,10.69,70612.0,-7.97,-8.75,-8.81,0,*63
1509278710.96,8459,10.69,70610.3,-7.95,-8.75,-8.81,0,*60
1509278712.18,8460,10.69,70604.0,-7.97,-8.81,-8.85,0,*67
1509278713.38,8461,10.69,70606.3,-7.97,-8.85,-8.85,0,*62
1509278714.64,8462,10.69,70604.5,-7.95,-8.81,-8.81,0,*63
1509278715.84,8463,10.69,70608.5,-7.97,-8.85,-8.85,0,*60
1509278717.04,8464,10.69,70622.8,-7.97,-8.93,-8.85,0,*60
1509278718.26,8465,10.69,70628.8,-7.97,-8.85,-8.81,0,*62
1509278719.48,8466,10.69,70636.0,-7.97,-8.85,-8.81,0,*61
1509278720.69,8467,10.69,70628.0,-7.97,-8.85,-8.81,0,*60
1509278721.91,8468,10.69,70608.3,-7.97,-8.85,-8.81,0,*6F
1509278723.14,8469,10.69,70586.3,-7.99,-8.89,-8.85,0,*68
1509278724.39,8470,10.69,70580.0,-7.99,-8.89,-8.81,0,*64
1509278725.59,8471,10.69,70548.8,-7.97,-8.85,-8.75,0,*6C
1509278726.8,8472,10.69,70512.0,-7.97,-8.85,-8.81,0,*64
1509278728.02,8473,10.69,70502.5,-7.97,-8.85,-8.81,0,*65
1509278729.24,8474,10.69,70496.0,-7.97,-8.93,-8.81,0,*65
1509278730.44,8475,10.69,70506.8,-7.97,-8.85,-8.85,0,*67
1509278731.67,8476,10.69,70508.0,-7.99,-8.89,-8.89,0,*6A
1509278732.9,8477,10.69,70516.3,-7.99,-8.89,-8.89,0,*6B
1509278734.14,8478,10.69,70522.8,-7.99,-8.89,-8.89,0,*64
1509278735.38,8479,10.69,70522.5,-7.99,-8.89,-8.81,0,*6D
1509278736.62,8480,10.69,70528.0,-7.99,-8.85,-8.85,0,*63
1509278737.88,8481,10.69,70524.3,-7.99,-8.81,-8.81,0,*62
1509278739.11,8482,10.69,70520.0,-7.99,-8.85,-8.85,0,*61
1509278740.34,8483,10.69,70526.0,-7.99,-8.85,-8.85,0,*60
1509278741.59,8484,10.69,70524.8,-7.99,-8.85,-8.81,0,*63
1509278742.85,8485,10.69,70530.5,-7.99,-8.81,-8.81,0,*66
1509278744.09,8486,10.69,70536.5,-7.99,-8.85,-8.85,0,*65
1509278745.33,8487,10.69,70538.5,-7.99,-8.81,-8.85,0,*60
1509278746.6,8488,10.69,70542.5,-7.99,-8.81,-8.81,0,*6B
1509278747.83,8489,10.69,70548.8,-7.99,-8.85,-8.85,0,*6A
1509278749.06,8490,10.69,70558.3,-7.99,-8.85,-8.85,0,*62
1509278750.29,8491,10.69,70576.8,-7.99,-8.85,-8.85,0,*63
1509278751.54,8492,10.69,70582.0,-7.99,-8.81,-8.85,0,*64
1509278752.79,8493,10.69,70584.8,-7.99,-8.81,-8.85,0,*65
1509278754.04,8494,10.69,70588.3,-7.99,-8.81,-8.85,0,*62
1509278755.3,8495,10.69,70604.0,-7.99,-8.81,-8.81,0,*67
1509278756.54,8496,10.69,70608.0,-7.99,-8.81,-8.71,0,*6B
1509278757.78,8497,10.69,70626.8,-7.99,-8.81,-8.71,0,*6A
1509278759.03,8498,10.69,70638.5,-7.99,-8.71,-8.81,0,*65
1509278760.27,8499,10.69,70642.5,-7.99,-8.81,-8.71,0,*64
1509278761.49,8500,10.69,70654.0,-7.99,-8.71,-8.67,0,*6D
1509278762.71,8501,10.69,70660.0,-7.99,-8.71,-8.71,0,*6B
1509278763.9,8502,10.69,70670.8,-7.97,-8.67,-8.63,0,*62
1509278765.08,8503,10.69,70688.8,-7.97,-8.67,-8.63,0,*63
1509278766.31,8504,10.69,70682.5,-7.99,-8.71,-8.71,0,*6E
1509278767.53,8505,10.69,70682.5,-7.99,-8.71,-8.67,0,*68
1509278768.75,8506,10.69,70682.8,-7.99,-8.71,-8.71,0,*6C
1509278770.01,8507,10.69,70680.8,-7.99,-8.81,-8.81,0,*6D
1509278771.26,8508,10.69,70680.3,-7.99,-8.85,-8.81,0,*66
1509278772.51,8509,10.69,70672.0,-7.99,-8.81,-8.85,0,*67
1509278773.76,8510,10.69,70670.3,-7.99,-8.81,-8.85,0,*6F
1509278775.0,8511,10.69,70660.0,-7.99,-8.81,-8.71,0,*65
1509278776.25,8512,10.69,70652.5,-7.99,-8.81,-8.85,0,*6D
1509278777.51,8513,10.69,70632.5,-7.99,-8.81,-8.81,0,*68
1509278778.74,8514,10.69,70594.5,-7.99,-8.85,-8.85,0,*6F
1509278780.0,8515,10.69,70632.5,-7.99,-8.81,-8.81,0,*6E
1509278781.25,8516,10.69,70644.5,-7.99,-8.85,-8.81,0,*69
1509278782.48,8517,10.69,70658.8,-7.99,-8.85,-8.85,0,*6C
1509278783.72,8518,10.69,70670.3,-7.99,-8.85,-8.85,0,*63
1509278784.96,8519,10.69,70680.8,-7.99,-8.81,-8.71,0,*6D
1509278786.15,8520,10.69,70700.8,-7.97,-8.75,-8.75,0,*66
1509278787.33,8521,10.69,70704.8,-7.97,-8.67,-8.75,0,*64
1509278788.52,8522,10.69,70704.3,-7.97,-8.75,-8.67,0,*67
1509278789.73,8523,10.69,70692.0,-7.97,-8.81,-8.75,0,*6E
1509278790.96,8524,10.69,70670.3,-7.99,-8.85,-8.85,0,*6C
1509278792.19,8525,10.69,70662.5,-7.99,-8.85,-8.85,0,*6D
1509278793.41,8526,10.69,70624.5,-7.97,-8.85,-8.81,0,*64
1509278794.64,8527,10.69,70650.3,-7.97,-8.81,-8.81,0,*61
1509278795.85,8528,10.69,70630.0,-7.97,-8.81,-8.75,0,*65
1509278797.08,8529,10.69,70636.0,-7.99,-8.89,-8.97,0,*6E
1509278798.31,8530,10.69,70638.8,-7.99,-8.89,-8.89,0,*69
1509278799.54,8531,10.69,70656.0,-7.99,-8.89,-8.89,0,*68
1509278800.74,8532,10.69,70666.5,-8.01,-8.97,-8.89,0,*6A
1509278801.97,8533,10.69,70678.3,-7.99,-8.89,-8.89,0,*6A
1509278803.2,8534,10.69,70676.0,-7.99,-8.89,-8.89,0,*6D
1509278804.43,8535,10.69,70682.0,-7.99,-8.89,-8.89,0,*6C
1509278805.66,8536,10.69,70684.0,-7.99,-8.97,-8.89,0,*60
1509278806.88,8537,10.69,70670.8,-7.99,-8.97,-8.89,0,*61
1509278808.11,8538,10.69,70638.8,-7.99,-8.89,-8.97,0,*6E
1509278809.34,8539,10.69,70606.5,-7.99,-8.89,-8.89,0,*60
1509278810.56,8540,10.69,70588.5,-7.99,-8.97,-8.97,0,*6E
1509278811.79,8541,10.69,70630.0,-7.99,-8.89,-8.89,0,*6F
1509278813.03,8542,10.69,70598.3,-7.99,-8.89,-8.89,0,*6C
1509278814.23,8543,10.69,70596.3,-8.01,-8.89,-8.89,0,*63
1509278815.46,8544,10.69,70622.3,-7.99,-8.89,-8.89,0,*6A
1509278816.69,8545,10.69,70624.5,-7.99,-8.89,-8.89,0,*6B
1509278817.9,8546,10.69,70642.3,-8.01,-8.89,-8.89,0,*66
1509278819.12,8547,10.69,70654.8,-7.99,-8.97,-8.89,0,*66
1509278820.35,8548,10.69,70660.8,-7.99,-8.89,-8.89,0,*66
1509278821.58,8549,10.69,70660.8,-7.99,-8.89,-8.85,0,*6B
1509278822.79,8550,10.69,70652.3,-8.01,-8.89,-8.85,0,*6D
1509278824.03,8551,10.69,70630.3,-7.99,-8.89,-8.81,0,*66
1509278825.24,8552,10.69,70632.8,-8.01,-8.89,-8.85,0,*6F
1509278826.47,8553,10.69,70642.0,-7.99,-8.85,-8.85,0,*6C
1509278827.68,8554,10.69,70650.3,-8.01,-8.85,-8.85,0,*65
1509278828.88,8555,10.69,70640.5,-8.01,-8.85,-8.85,0,*64
1509278830.08,8556,10.69,70660.5,-8.01,-8.85,-8.85,0,*67
1509278831.33,8557,10.69,70642.8,-7.99,-8.85,-8.81,0,*6C
1509278832.55,8558,10.69,70630.5,-8.01,-8.85,-8.81,0,*6D
1509278833.76,8559,10.69,70618.8,-8.01,-8.85,-8.85,0,*68
1509278834.98,8560,10.69,70600.0,-8.01,-8.85,-8.81,0,*66
1509278836.18,8561,10.69,70584.3,-8.01,-8.85,-8.85,0,*63
1509278837.39,8562,10.69,70536.8,-8.01,-8.85,-8.85,0,*60
1509278838.59,8563,10.69,70514.0,-8.01,-8.85,-8.85,0,*61
1509278839.84,8564,10.69,70500.3,-7.99,-8.85,-8.81,0,*6C
1509278841.09,8565,10.69,70502.3,-7.99,-8.85,-8.81,0,*6D
1509278842.31,8566,10.69,70524.3,-8.01,-8.81,-8.85,0,*60
1509278843.53,8567,10.69,70588.3,-8.01,-8.81,-8.85,0,*61
1509278844.75,8568,10.69,70618.0,-8.01,-8.85,-8.81,0,*6E
1509278845.97,8569,10.69,70628.0,-8.01,-8.85,-8.81,0,*6F
1509278847.19,8570,10.69,70624.3,-8.01,-8.85,-8.81,0,*67
1509278848.43,8571,10.69,70598.3,-8.01,-8.81,-8.81,0,*62
1509278849.65,8572,10.69,70618.8,-8.01,-8.81,-8.85,0,*65
1509278850.85,8573,10.69,70620.8,-8.01,-8.85,-8.85,0,*60
1509278852.05,8574,10.69,70626.8,-8.01,-8.89,-8.89,0,*67
1509278853.26,8575,10.69,70598.5,-8.01,-8.89,-8.89,0,*66
1509278854.48,8576,10.69,70578.3,-8.03,-8.93,-8.93,0,*67
1509278855.69,8577,10.69,70576.0,-8.01,-9.01,-9.01,0,*64
1509278856.94,8578,10.69,70530.8,-8.01,-9.11,-9.11,0,*6B
1509278858.17,8579,10.69,70542.0,-8.01,-9.11,-9.01,0,*6B
1509278859.38,8580,10.69,70576.5,-8.01,-9.01,-9.01,0,*6C
1509278860.58,8581,10.69,70572.8,-8.01,-9.01,-9.01,0,*6D
1509278861.78,8582,10.69,70508.0,-8.01,-8.97,-8.89,0,*61
1509278862.98,8583,10.69,70494.8,-8.01,-8.89,-8.97,0,*60
1509278864.18,8584,10.69,70502.5,-8.01,-8.97,-8.89,0,*67
1509278865.38,8585,10.69,70516.5,-8.01,-8.89,-8.97,0,*66
1509278866.6,8586,10.69,70532.8,-8.03,-9.01,-8.93,0,*62
1509278867.83,8587,10.69,70510.5,-8.03,-8.93,-9.01,0,*63
1509278869.06,8588,10.69,70520.0,-8.03,-9.01,-9.01,0,*66
1509278870.29,8589,10.69,70536.5,-8.03,-9.01,-8.93,0,*6D
1509278871.52,8590,10.69,70540.5,-8.03,-9.01,-9.01,0,*6F
1509278872.74,8591,10.69,70552.0,-8.03,-8.93,-8.93,0,*6E
1509278873.94,8592,10.69,70534.8,-8.05,-9.01,-8.93,0,*61
1509278875.17,8593,10.69,70570.3,-8.03,-8.93,-8.93,0,*6C
1509278876.39,8594,10.69,70520.8,-8.03,-8.93,-8.93,0,*6B
1509278877.62,8595,10.69,70536.5,-8.03,-8.93,-8.93,0,*6A
1509278878.81,8596,10.69,70550.5,-8.05,-8.93,-8.93,0,*6F
1509278880.04,8597,10.69,70574.3,-8.03,-8.93,-8.89,0,*63
1509278881.24,8598,10.69,70580.3,-8.05,-8.93,-8.85,0,*66
1509278882.47,8599,10.69,70586.0,-8.03,-8.93,-8.89,0,*6D
1509278883.7,8600,10.69,70594.0,-8.03,-8.93,-8.85,0,*62
1509278884.93,8601,10.69,70600.8,-8.03,-8.89,-8.85,0,*68
1509278886.15,8602,10.69,70612.3,-8.03,-8.89,-8.75,0,*64
1509278887.38,8603,10.69,70616.5,-8.03,-8.89,-8.89,0,*66
1509278888.61,8604,10.69,70624.5,-8.03,-8.85,-8.89,0,*6D
1509278889.81,8605,10.69,70626.5,-8.05,-8.89,-8.89,0,*66
1509278891.04,8606,10.69,70624.5,-8.03,-8.89,-8.89,0,*63
1509278892.24,8607,10.69,70626.5,-8.05,-8.89,-8.89,0,*64
1509278893.46,8608,10.69,70628.5,-8.03,-8.89,-8.89,0,*6D
1509278894.67,8609,10.69,70634.3,-8.05,-8.85,-8.89,0,*66
1509278895.9,8610,10.69,70634.5,-8.03,-8.89,-8.89,0,*64
1509278897.12,8611,10.69,70630.5,-8.03,-8.85,-8.85,0,*65
1509278898.35,8612,10.69,70624.3,-8.03,-8.89,-8.85,0,*6A
1509278899.58,8613,10.69,70624.8,-8.03,-8.89,-8.85,0,*6B
1509278900.81,8614,10.69,70630.3,-8.03,-8.89,-8.85,0,*6C
1509278902.01,8615,10.69,70632.5,-8.05,-8.89,-8.85,0,*6B
1509278903.24,8616,10.69,70638.5,-8.03,-8.85,-8.85,0,*62
1509278904.44,8617,10.69,70642.3,-8.05,-8.89,-8.85,0,*69
1509278905.64,8618,10.69,70646.0,-8.05,-8.89,-8.85,0,*66
1509278906.87,8619,10.69,70644.3,-8.03,-8.89,-8.85,0,*61
1509278908.1,8620,10.69,70648.3,-8.03,-8.85,-8.89,0,*6B
1509278909.3,8621,10.69,70648.3,-8.05,-8.89,-8.85,0,*6C
1509278910.5,8622,10.69,70654.8,-8.05,-8.89,-8.75,0,*60